Location: Newark
(49.8969°N, 3.3422°E)
Time: 07:27:22
(UTC+00:00)

A-11 Canister half - Pass Details

Date: 30 January 2020
Orbit: 1517 x 1683 km, 47.2° (Epoch: 20 February)

Event Time Altitude Azimuth Distance (km) Brightness Sun altitude
Rises 20:25:26 0° 196° (SSW) 4,791 11.6 -36.6°
Enters shadow 20:28:34 - 187° (S) 3,954 11.0 -37.0°
Reaches altitude 10° 20:29:16 10° 184° (S) 3,782 - -37.2°
Maximum altitude 20:36:30 25° 134° (SE) 2,734 - -38.3°
Drops below altitude 10° 20:43:37 10° 84° (E) 3,708 - -39.3°
Sets 20:47:17 0° 72° (ENE) 4,679 - -39.9°
